sat.trackr.live / text

‹ back to catalog

ONEWEB-0036

NORAD 45144 · 2020-008P

PAYLOAD ACTIVE UNKNOWN

§ Identity

Operator
Country
UK
Launch date
2020-02-06
Launch site
TYMSC
Launch vehicle
Mass (kg)
RCS (m²)

Purposes: comms

External: N2YO · Heavens-Above · Gunter

§ Orbital elements

Epoch: 2026-05-25T03:10:24.773952Z

Period
109.94 min
Inclination
87.8873°
Eccentricity
0.0002050
Mean motion
13.09823949 rev/d
Perigee alt
1,222.3 km
Apogee alt
1,225.4 km
Semi-major
7,602.0 km
B*
-1.1947e-3
RAAN
40.8646°
Arg perigee
81.2334°
Mean anomaly
278.9025°
Rev number
30,534

§ Raw data

ONEWEB-00361 45144U 20008P   26145.13223118 -.00000401  00000+0 -11947-2 0  99972 45144  87.8873  40.8646 0002050  81.2334 278.9025 13.09823949305343

JSON: /api/v1/satellites/45144 · /tle

For live sub-satellite position, see the globe view (requires WebGL).

§ Visibility from observer

Set your observer location to see the next 7 days of passes ≥ 10°. The values pass through the URL so the page stays shareable.

No JS? Fill the form by hand. The geolocation button needs JavaScript.